contact:dominique.lefevre@mio.osupytheas.fr, maurice.libes@osupytheas.fr, didier.mallarino@osupytheas.fr
Project:EMSO http://www.emso-fr.org/EMSO-France
Depth: 2436.0 m
Title:EMSO Ligure Ouest : Data MII capteur MICROCAT
DateTime_Computer,Latitude,Longitude,Temperature,Conductivity,Pressure,DateTime_Instrument
DateTime_Computer,Latitude,Longitude,degC,S m-1,dbar,DateTime_Instrument
2020-07-24T00:00:46Z,42.805,6.029,13.2983,4.60011,2470.18,2020-7-24T02:01:33Z
2020-07-24T00:03:49Z,42.805,6.029,13.2990,4.60008,2470.156,2020-7-24T02:04:37Z
2020-07-24T00:06:52Z,42.805,6.029,13.2989,4.59998,2470.203,2020-7-24T02:07:40Z
2020-07-24T00:09:56Z,42.805,6.029,13.2997,4.60026,2470.18,2020-7-24T02:10:43Z
2020-07-24T00:12:59Z,42.805,6.029,13.2981,4.60001,2470.171,2020-7-24T02:13:46Z
2020-07-24T00:16:02Z,42.805,6.029,13.2993,4.60033,2470.133,2020-7-24T02:16:49Z
2020-07-24T00:19:05Z,42.805,6.029,13.2993,4.60019,2470.156,2020-7-24T02:19:53Z
2020-07-24T00:22:09Z,42.805,6.029,13.2977,4.60014,2470.171,2020-7-24T02:22:56Z
2020-07-24T00:25:12Z,42.805,6.029,13.2986,4.60016,2470.156,2020-7-24T02:25:59Z
2020-07-24T00:28:15Z,42.805,6.029,13.2986,4.60014,2470.171,2020-7-24T02:29:02Z
2020-07-24T00:31:18Z,42.805,6.029,13.2983,4.60014,2470.133,2020-7-24T02:32:06Z
2020-07-24T00:34:22Z,42.805,6.029,13.2998,4.60030,2470.156,2020-7-24T02:35:09Z
2020-07-24T00:37:25Z,42.805,6.029,13.2996,4.60026,2470.133,2020-7-24T02:38:12Z
2020-07-24T00:40:28Z,42.805,6.029,13.2988,4.60008,2470.124,2020-7-24T02:41:16Z
2020-07-24T00:43:32Z,42.805,6.029,13.2989,4.60016,2470.133,2020-7-24T02:44:19Z
2020-07-24T00:46:35Z,42.805,6.029,13.2993,4.60011,2470.133,2020-7-24T02:47:22Z
2020-07-24T00:49:38Z,42.805,6.029,13.3000,4.60024,2470.124,2020-7-24T02:50:26Z
2020-07-24T00:52:41Z,42.805,6.029,13.2991,4.60011,2470.171,2020-7-24T02:53:29Z
2020-07-24T00:55:45Z,42.805,6.029,13.2991,4.60004,2470.133,2020-7-24T02:56:32Z
2020-07-24T00:58:48Z,42.805,6.029,13.2987,4.60004,2470.11,2020-7-24T02:59:35Z
2020-07-24T01:01:51Z,42.805,6.029,13.2986,4.60006,2470.133,2020-7-24T03:02:39Z
2020-07-24T01:04:54Z,42.805,6.029,13.2993,4.60021,2470.1,2020-7-24T03:05:42Z
2020-07-24T01:07:58Z,42.805,6.029,13.2983,4.59998,2470.087,2020-7-24T03:08:45Z
2020-07-24T01:11:01Z,42.805,6.029,13.2986,4.60007,2470.147,2020-7-24T03:11:48Z
2020-07-24T01:14:04Z,42.805,6.029,13.2982,4.60012,2470.147,2020-7-24T03:14:52Z
2020-07-24T01:17:07Z,42.805,6.029,13.2976,4.59993,2470.133,2020-7-24T03:17:55Z
2020-07-24T01:20:11Z,42.805,6.029,13.2985,4.60009,2470.124,2020-7-24T03:20:58Z
2020-07-24T01:23:14Z,42.805,6.029,13.2984,4.60007,2470.11,2020-7-24T03:24:01Z
2020-07-24T01:26:17Z,42.805,6.029,13.2979,4.59991,2470.124,2020-7-24T03:27:05Z
2020-07-24T01:29:20Z,42.805,6.029,13.2983,4.60007,2470.063,2020-7-24T03:30:08Z
2020-07-24T01:32:24Z,42.805,6.029,13.2981,4.59998,2470.1,2020-7-24T03:33:11Z
2020-07-24T01:35:27Z,42.805,6.029,13.2981,4.59992,2470.124,2020-7-24T03:36:14Z
2020-07-24T01:38:30Z,42.805,6.029,13.2977,4.59999,2470.087,2020-7-24T03:39:18Z
2020-07-24T01:41:34Z,42.805,6.029,13.2984,4.59997,2470.096,2020-7-24T03:42:21Z
2020-07-24T01:44:37Z,42.805,6.029,13.2980,4.59997,2470.063,2020-7-24T03:45:24Z
2020-07-24T01:47:40Z,42.805,6.029,13.2981,4.60020,2470.087,2020-7-24T03:48:28Z
2020-07-24T01:50:44Z,42.805,6.029,13.2990,4.59999,2470.087,2020-7-24T03:51:31Z
2020-07-24T01:53:47Z,42.805,6.029,13.2984,4.60001,2470.087,2020-7-24T03:54:34Z
2020-07-24T01:56:50Z,42.805,6.029,13.2978,4.60003,2470.124,2020-7-24T03:57:37Z
2020-07-24T01:59:53Z,42.805,6.029,13.2986,4.59995,2470.124,2020-7-24T04:00:41Z
2020-07-24T02:02:57Z,42.805,6.029,13.2983,4.59995,2470.049,2020-7-24T04:03:44Z
2020-07-24T02:06:00Z,42.805,6.029,13.2976,4.60010,2470.077,2020-7-24T04:06:47Z
2020-07-24T02:09:03Z,42.805,6.029,13.2977,4.59999,2470.077,2020-7-24T04:09:50Z
2020-07-24T02:12:06Z,42.805,6.029,13.2983,4.60002,2470.063,2020-7-24T04:12:54Z
2020-07-24T02:15:09Z,42.805,6.029,13.2979,4.60003,2470.063,2020-7-24T04:15:57Z
2020-07-24T02:18:13Z,42.805,6.029,13.2980,4.59996,2470.077,2020-7-24T04:19:00Z
2020-07-24T02:21:16Z,42.805,6.029,13.2984,4.60007,2470.077,2020-7-24T04:22:03Z
2020-07-24T02:24:19Z,42.805,6.029,13.2977,4.59993,2470.077,2020-7-24T04:25:07Z
2020-07-24T02:27:22Z,42.805,6.029,13.2978,4.59990,2470.04,2020-7-24T04:28:10Z
2020-07-24T02:30:26Z,42.805,6.029,13.2979,4.60011,2470.04,2020-7-24T04:31:13Z
2020-07-24T02:33:29Z,42.805,6.029,13.2979,4.59995,2470.053,2020-7-24T04:34:16Z
2020-07-24T02:36:32Z,42.805,6.029,13.2983,4.59991,2470.063,2020-7-24T04:37:20Z
2020-07-24T02:39:36Z,42.805,6.029,13.2979,4.59989,2470.063,2020-7-24T04:40:23Z
2020-07-24T02:42:39Z,42.805,6.029,13.2980,4.59993,2470.04,2020-7-24T04:43:27Z
2020-07-24T02:45:42Z,42.805,6.029,13.2990,4.60011,2470.04,2020-7-24T04:46:30Z
2020-07-24T02:48:46Z,42.805,6.029,13.2983,4.59995,2470.077,2020-7-24T04:49:33Z
2020-07-24T02:51:49Z,42.805,6.029,13.2983,4.59991,2470.04,2020-7-24T04:52:36Z
2020-07-24T02:54:52Z,42.805,6.029,13.2974,4.59990,2470.017,2020-7-24T04:55:40Z
2020-07-24T02:57:55Z,42.805,6.029,13.2975,4.59985,2470.063,2020-7-24T04:58:43Z
2020-07-24T03:00:59Z,42.805,6.029,13.2985,4.60008,2469.984,2020-7-24T05:01:46Z
2020-07-24T03:04:02Z,42.805,6.029,13.2984,4.60003,2470.053,2020-7-24T05:04:49Z
2020-07-24T03:07:05Z,42.805,6.029,13.2990,4.60008,2470.03,2020-7-24T05:07:52Z
2020-07-24T03:10:08Z,42.805,6.029,13.2986,4.60002,2470.053,2020-7-24T05:10:56Z
2020-07-24T03:13:12Z,42.805,6.029,13.2983,4.60008,2470.04,2020-7-24T05:13:59Z
2020-07-24T03:16:15Z,42.805,6.029,13.2990,4.60019,2470.053,2020-7-24T05:17:03Z
2020-07-24T03:19:18Z,42.805,6.029,13.2985,4.60003,2470.053,2020-7-24T05:20:06Z
2020-07-24T03:22:21Z,42.805,6.029,13.2982,4.60005,2470.017,2020-7-24T05:23:09Z
2020-07-24T03:25:25Z,42.805,6.029,13.2982,4.59996,2470.017,2020-7-24T05:26:12Z
2020-07-24T03:28:28Z,42.805,6.029,13.2983,4.60016,2470.017,2020-7-24T05:29:16Z
2020-07-24T03:31:31Z,42.805,6.029,13.2986,4.60019,2470.04,2020-7-24T05:32:19Z
2020-07-24T03:34:35Z,42.805,6.029,13.2989,4.60031,2470.017,2020-7-24T05:35:22Z
2020-07-24T03:37:38Z,42.805,6.029,13.2986,4.60014,2469.993,2020-7-24T05:38:25Z
2020-07-24T03:40:41Z,42.805,6.029,13.2986,4.60009,2470.007,2020-7-24T05:41:29Z
2020-07-24T03:43:44Z,42.805,6.029,13.2983,4.60003,2469.993,2020-7-24T05:44:32Z
2020-07-24T03:46:48Z,42.805,6.029,13.2977,4.60000,2470.017,2020-7-24T05:47:35Z
2020-07-24T03:49:51Z,42.805,6.029,13.2993,4.60014,2470.007,2020-7-24T05:50:38Z
2020-07-24T03:52:54Z,42.805,6.029,13.2998,4.60020,2470.017,2020-7-24T05:53:42Z
2020-07-24T03:55:57Z,42.805,6.029,13.2990,4.60024,2470.007,2020-7-24T05:56:45Z
2020-07-24T03:59:01Z,42.805,6.029,13.2988,4.60013,2469.993,2020-7-24T05:59:48Z
2020-07-24T04:02:04Z,42.805,6.029,13.2979,4.60007,2469.97,2020-7-24T06:02:51Z
2020-07-24T04:05:07Z,42.805,6.029,13.2981,4.60007,2469.993,2020-7-24T06:05:55Z
2020-07-24T04:08:10Z,42.805,6.029,13.2974,4.60015,2470.04,2020-7-24T06:08:58Z
2020-07-24T04:11:13Z,42.805,6.029,13.2980,4.59994,2470.007,2020-7-24T06:12:01Z
2020-07-24T04:14:17Z,42.805,6.029,13.2985,4.60010,2470.017,2020-7-24T06:15:04Z
2020-07-24T04:17:20Z,42.805,6.029,13.2996,4.60019,2470.017,2020-7-24T06:18:07Z
2020-07-24T04:20:23Z,42.805,6.029,13.2983,4.60001,2469.97,2020-7-24T06:21:11Z
2020-07-24T04:23:27Z,42.805,6.029,13.2980,4.60013,2469.984,2020-7-24T06:24:14Z
2020-07-24T04:26:30Z,42.805,6.029,13.2984,4.60027,2470.03,2020-7-24T06:27:17Z
2020-07-24T04:29:33Z,42.805,6.029,13.2998,4.60021,2469.993,2020-7-24T06:30:20Z
2020-07-24T04:32:36Z,42.805,6.029,13.2975,4.59993,2470.007,2020-7-24T06:33:24Z
2020-07-24T04:35:39Z,42.805,6.029,13.2983,4.59996,2470.03,2020-7-24T06:36:27Z
2020-07-24T04:38:43Z,42.805,6.029,13.2987,4.60025,2470.017,2020-7-24T06:39:30Z
2020-07-24T04:41:46Z,42.805,6.029,13.2996,4.60011,2469.993,2020-7-24T06:42:33Z
2020-07-24T04:44:49Z,42.805,6.029,13.2992,4.60006,2469.97,2020-7-24T06:45:37Z
2020-07-24T04:47:52Z,42.805,6.029,13.2993,4.60024,2470.007,2020-7-24T06:48:40Z
2020-07-24T04:50:56Z,42.805,6.029,13.3003,4.60003,2470.007,2020-7-24T06:51:43Z
2020-07-24T04:53:59Z,42.805,6.029,13.2986,4.59999,2469.984,2020-7-24T06:54:46Z
2020-07-24T04:57:02Z,42.805,6.029,13.2997,4.60019,2470.007,2020-7-24T06:57:50Z
2020-07-24T05:00:05Z,42.805,6.029,13.3000,4.60032,2470.04,2020-7-24T07:00:53Z
2020-07-24T05:03:09Z,42.805,6.029,13.3017,4.60039,2470.03,2020-7-24T07:03:56Z
2020-07-24T05:06:12Z,42.805,6.029,13.3001,4.60062,2470.03,2020-7-24T07:06:59Z
2020-07-24T05:09:15Z,42.805,6.029,13.3029,4.60030,2469.993,2020-7-24T07:10:03Z
2020-07-24T05:12:18Z,42.805,6.029,13.2992,4.60049,2469.993,2020-7-24T07:13:06Z
2020-07-24T05:15:22Z,42.805,6.029,13.3005,4.60026,2470.017,2020-7-24T07:16:09Z
2020-07-24T05:18:25Z,42.805,6.029,13.3014,4.60039,2470.007,2020-7-24T07:19:13Z
2020-07-24T05:21:28Z,42.805,6.029,13.3011,4.60046,2469.993,2020-7-24T07:22:16Z
2020-07-24T05:24:32Z,42.805,6.029,13.3009,4.60026,2470.007,2020-7-24T07:25:19Z
2020-07-24T05:27:35Z,42.805,6.029,13.2998,4.60041,2470.007,2020-7-24T07:28:23Z
2020-07-24T05:30:38Z,42.805,6.029,13.3014,4.60021,2469.993,2020-7-24T07:31:26Z
2020-07-24T05:33:42Z,42.805,6.029,13.2998,4.60033,2469.993,2020-7-24T07:34:29Z
2020-07-24T05:36:45Z,42.805,6.029,13.2997,4.60011,2470.007,2020-7-24T07:37:33Z
2020-07-24T05:39:48Z,42.805,6.029,13.3017,4.60031,2470.053,2020-7-24T07:40:36Z
2020-07-24T05:42:52Z,42.805,6.029,13.2997,4.60047,2470.007,2020-7-24T07:43:39Z
2020-07-24T05:45:55Z,42.805,6.029,13.3005,4.60056,2470.04,2020-7-24T07:46:42Z
2020-07-24T05:48:58Z,42.805,6.029,13.2979,4.60031,2470.007,2020-7-24T07:49:46Z
2020-07-24T05:52:01Z,42.805,6.029,13.2990,4.60026,2470.007,2020-7-24T07:52:49Z
2020-07-24T05:55:05Z,42.805,6.029,13.3007,4.60031,2470.053,2020-7-24T07:55:52Z
2020-07-24T05:58:08Z,42.805,6.029,13.3006,4.60054,2470.03,2020-7-24T07:58:55Z
2020-07-24T06:01:11Z,42.805,6.029,13.2996,4.60029,2470.017,2020-7-24T08:01:59Z
2020-07-24T06:04:14Z,42.805,6.029,13.3003,4.60060,2470.04,2020-7-24T08:05:02Z
2020-07-24T06:07:18Z,42.805,6.029,13.3012,4.60032,2470.017,2020-7-24T08:08:05Z
2020-07-24T06:10:21Z,42.805,6.029,13.3010,4.60044,2470.04,2020-7-24T08:11:09Z
2020-07-24T06:13:24Z,42.805,6.029,13.3014,4.60040,2470.053,2020-7-24T08:14:12Z
2020-07-24T06:16:27Z,42.805,6.029,13.2993,4.60043,2470.017,2020-7-24T08:17:15Z
2020-07-24T06:19:31Z,42.805,6.029,13.3003,4.60023,2470.03,2020-7-24T08:20:18Z
2020-07-24T06:22:34Z,42.805,6.029,13.3011,4.60034,2470.03,2020-7-24T08:23:21Z
2020-07-24T06:25:37Z,42.805,6.029,13.3001,4.60045,2469.984,2020-7-24T08:26:25Z
2020-07-24T06:28:40Z,42.805,6.029,13.3012,4.60036,2470.03,2020-7-24T08:29:28Z
2020-07-24T06:31:44Z,42.805,6.029,13.3029,4.60059,2470.017,2020-7-24T08:32:31Z
2020-07-24T06:34:47Z,42.805,6.029,13.3015,4.60023,2470.03,2020-7-24T08:35:34Z
2020-07-24T06:37:50Z,42.805,6.029,13.3007,4.60007,2470.04,2020-7-24T08:38:38Z
2020-07-24T06:40:53Z,42.805,6.029,13.3018,4.59998,2470.053,2020-7-24T08:41:41Z
2020-07-24T06:43:57Z,42.805,6.029,13.3009,4.60058,2470.017,2020-7-24T08:44:44Z
2020-07-24T06:47:00Z,42.805,6.029,13.2991,4.60059,2470.087,2020-7-24T08:47:48Z
2020-07-24T06:50:04Z,42.805,6.029,13.3015,4.60019,2470.077,2020-7-24T08:50:51Z
2020-07-24T06:53:07Z,42.805,6.029,13.3016,4.60037,2470.077,2020-7-24T08:53:54Z
2020-07-24T06:56:10Z,42.805,6.029,13.3004,4.60034,2470.077,2020-7-24T08:56:57Z
2020-07-24T06:59:13Z,42.805,6.029,13.2992,4.59987,2470.04,2020-7-24T09:00:01Z
2020-07-24T07:02:16Z,42.805,6.029,13.3009,4.59986,2470.087,2020-7-24T09:03:04Z
2020-07-24T07:05:20Z,42.805,6.029,13.2989,4.60046,2470.077,2020-7-24T09:06:07Z
2020-07-24T07:08:23Z,42.805,6.029,13.3000,4.59999,2470.077,2020-7-24T09:09:10Z
2020-07-24T07:11:26Z,42.805,6.029,13.2999,4.60031,2470.11,2020-7-24T09:12:14Z
2020-07-24T07:14:29Z,42.805,6.029,13.3011,4.59994,2470.087,2020-7-24T09:15:17Z
2020-07-24T07:17:33Z,42.805,6.029,13.2994,4.59999,2470.04,2020-7-24T09:18:20Z
2020-07-24T07:20:36Z,42.805,6.029,13.2996,4.59994,2470.087,2020-7-24T09:21:23Z
2020-07-24T07:23:39Z,42.805,6.029,13.3006,4.60009,2470.11,2020-7-24T09:24:27Z
2020-07-24T07:26:42Z,42.805,6.029,13.2997,4.59992,2470.1,2020-7-24T09:27:30Z
2020-07-24T07:29:46Z,42.805,6.029,13.3021,4.59992,2470.1,2020-7-24T09:30:33Z
2020-07-24T07:32:49Z,42.805,6.029,13.3008,4.60003,2470.087,2020-7-24T09:33:36Z
2020-07-24T07:35:52Z,42.805,6.029,13.3004,4.59988,2470.11,2020-7-24T09:36:39Z
2020-07-24T07:38:55Z,42.805,6.029,13.3006,4.60018,2470.1,2020-7-24T09:39:43Z
2020-07-24T07:41:58Z,42.805,6.029,13.3019,4.60001,2470.087,2020-7-24T09:42:46Z
2020-07-24T07:45:02Z,42.805,6.029,13.3003,4.60022,2470.124,2020-7-24T09:45:49Z
2020-07-24T07:48:05Z,42.805,6.029,13.3009,4.60046,2470.11,2020-7-24T09:48:52Z
2020-07-24T07:51:08Z,42.805,6.029,13.3003,4.60014,2470.11,2020-7-24T09:51:56Z
2020-07-24T07:54:11Z,42.805,6.029,13.3009,4.59991,2470.11,2020-7-24T09:54:59Z
2020-07-24T07:57:15Z,42.805,6.029,13.2996,4.60021,2470.087,2020-7-24T09:58:02Z
2020-07-24T08:00:18Z,42.805,6.029,13.2993,4.60020,2470.087,2020-7-24T10:01:06Z
2020-07-24T08:03:21Z,42.805,6.029,13.2991,4.60007,2470.11,2020-7-24T10:04:09Z
2020-07-24T08:06:25Z,42.805,6.029,13.2998,4.60020,2470.124,2020-7-24T10:07:12Z
2020-07-24T08:09:28Z,42.805,6.029,13.3019,4.59994,2470.133,2020-7-24T10:10:15Z
2020-07-24T08:12:31Z,42.805,6.029,13.3006,4.60006,2470.124,2020-7-24T10:13:18Z
2020-07-24T08:15:34Z,42.805,6.029,13.2994,4.60014,2470.133,2020-7-24T10:16:22Z
2020-07-24T08:18:37Z,42.805,6.029,13.3026,4.60019,2470.133,2020-7-24T10:19:25Z
2020-07-24T08:21:41Z,42.805,6.029,13.3014,4.60004,2470.11,2020-7-24T10:22:28Z
2020-07-24T08:24:44Z,42.805,6.029,13.3019,4.59999,2470.147,2020-7-24T10:25:31Z
2020-07-24T08:27:47Z,42.805,6.029,13.3009,4.59994,2470.147,2020-7-24T10:28:35Z
2020-07-24T08:30:51Z,42.805,6.029,13.3016,4.60014,2470.147,2020-7-24T10:31:38Z
2020-07-24T08:33:54Z,42.805,6.029,13.2991,4.60004,2470.11,2020-7-24T10:34:41Z
2020-07-24T08:36:57Z,42.805,6.029,13.3000,4.60008,2470.147,2020-7-24T10:37:45Z
2020-07-24T08:40:01Z,42.805,6.029,13.3002,4.60039,2470.147,2020-7-24T10:40:48Z
2020-07-24T08:43:04Z,42.805,6.029,13.2980,4.60007,2470.124,2020-7-24T10:43:51Z
2020-07-24T08:46:07Z,42.805,6.029,13.2995,4.60018,2470.133,2020-7-24T10:46:55Z
2020-07-24T08:49:10Z,42.805,6.029,13.3004,4.60015,2470.133,2020-7-24T10:49:58Z
2020-07-24T08:52:14Z,42.805,6.029,13.3000,4.60029,2470.133,2020-7-24T10:53:01Z
2020-07-24T08:55:17Z,42.805,6.029,13.3011,4.60013,2470.133,2020-7-24T10:56:04Z
2020-07-24T08:58:20Z,42.805,6.029,13.3025,4.59993,2470.087,2020-7-24T10:59:08Z
2020-07-24T09:01:23Z,42.805,6.029,13.2995,4.60014,2470.11,2020-7-24T11:02:11Z
2020-07-24T09:04:27Z,42.805,6.029,13.3034,4.60033,2470.156,2020-7-24T11:05:14Z
2020-07-24T09:07:30Z,42.805,6.029,13.3030,4.60005,2470.133,2020-7-24T11:08:17Z
2020-07-24T09:10:33Z,42.805,6.029,13.3031,4.60027,2470.11,2020-7-24T11:11:21Z
2020-07-24T09:13:36Z,42.805,6.029,13.3028,4.60035,2470.133,2020-7-24T11:14:24Z
2020-07-24T09:16:40Z,42.805,6.029,13.3031,4.60019,2470.171,2020-7-24T11:17:27Z
2020-07-24T09:19:43Z,42.805,6.029,13.3009,4.60020,2470.147,2020-7-24T11:20:30Z
2020-07-24T09:22:46Z,42.805,6.029,13.3037,4.60013,2470.147,2020-7-24T11:23:33Z
2020-07-24T09:25:49Z,42.805,6.029,13.3037,4.60019,2470.156,2020-7-24T11:26:37Z
2020-07-24T09:28:52Z,42.805,6.029,13.3006,4.60021,2470.18,2020-7-24T11:29:40Z
2020-07-24T09:31:56Z,42.805,6.029,13.3030,4.60031,2470.133,2020-7-24T11:32:43Z
2020-07-24T09:34:59Z,42.805,6.029,13.3027,4.60039,2470.147,2020-7-24T11:35:47Z
2020-07-24T09:38:03Z,42.805,6.029,13.3042,4.60066,2470.156,2020-7-24T11:38:50Z
2020-07-24T09:41:06Z,42.805,6.029,13.3045,4.60062,2470.147,2020-7-24T11:41:53Z
2020-07-24T09:44:09Z,42.805,6.029,13.3014,4.60063,2470.171,2020-7-24T11:44:57Z
2020-07-24T09:47:12Z,42.805,6.029,13.3021,4.60051,2470.133,2020-7-24T11:48:00Z
2020-07-24T09:50:16Z,42.805,6.029,13.3010,4.60031,2470.171,2020-7-24T11:51:03Z
2020-07-24T09:53:19Z,42.805,6.029,13.3036,4.60049,2470.171,2020-7-24T11:54:06Z
2020-07-24T09:56:22Z,42.805,6.029,13.3018,4.60057,2470.156,2020-7-24T11:57:09Z
2020-07-24T09:59:25Z,42.805,6.029,13.3003,4.60070,2470.171,2020-7-24T12:00:13Z
2020-07-24T10:02:28Z,42.805,6.029,13.2998,4.60039,2470.156,2020-7-24T12:03:16Z
2020-07-24T10:05:32Z,42.805,6.029,13.2993,4.60007,2470.11,2020-7-24T12:06:19Z
2020-07-24T10:08:35Z,42.805,6.029,13.2982,4.60062,2470.171,2020-7-24T12:09:22Z
2020-07-24T10:11:38Z,42.805,6.029,13.2986,4.60014,2470.194,2020-7-24T12:12:26Z
2020-07-24T10:14:42Z,42.805,6.029,13.2981,4.60013,2470.147,2020-7-24T12:15:29Z
2020-07-24T10:17:45Z,42.805,6.029,13.2993,4.60056,2470.147,2020-7-24T12:18:32Z
2020-07-24T10:20:48Z,42.805,6.029,13.2993,4.60039,2470.147,2020-7-24T12:21:35Z
2020-07-24T10:23:51Z,42.805,6.029,13.3002,4.60028,2470.156,2020-7-24T12:24:39Z
2020-07-24T10:26:55Z,42.805,6.029,13.3009,4.60027,2470.124,2020-7-24T12:27:42Z
2020-07-24T10:29:58Z,42.805,6.029,13.2996,4.60067,2470.133,2020-7-24T12:30:45Z
2020-07-24T10:33:01Z,42.805,6.029,13.3005,4.60064,2470.18,2020-7-24T12:33:49Z
2020-07-24T10:36:04Z,42.805,6.029,13.3014,4.60051,2470.124,2020-7-24T12:36:52Z
2020-07-24T10:39:08Z,42.805,6.029,13.3022,4.60024,2470.147,2020-7-24T12:39:55Z
2020-07-24T10:42:11Z,42.805,6.029,13.3022,4.60025,2470.11,2020-7-24T12:42:58Z
2020-07-24T10:45:14Z,42.805,6.029,13.2981,4.60046,2470.147,2020-7-24T12:46:02Z
2020-07-24T10:48:17Z,42.805,6.029,13.2991,4.60049,2470.133,2020-7-24T12:49:05Z
2020-07-24T10:51:21Z,42.805,6.029,13.2991,4.60067,2470.11,2020-7-24T12:52:08Z
2020-07-24T10:54:24Z,42.805,6.029,13.3005,4.60072,2470.171,2020-7-24T12:55:11Z
2020-07-24T10:57:27Z,42.805,6.029,13.2998,4.60079,2470.11,2020-7-24T12:58:14Z
2020-07-24T11:00:30Z,42.805,6.029,13.2986,4.60053,2470.11,2020-7-24T13:01:18Z
2020-07-24T11:03:33Z,42.805,6.029,13.2981,4.60016,2470.133,2020-7-24T13:04:21Z
2020-07-24T11:06:37Z,42.805,6.029,13.2983,4.60025,2470.133,2020-7-24T13:07:24Z
2020-07-24T11:09:40Z,42.805,6.029,13.2988,4.60037,2470.133,2020-7-24T13:10:27Z
2020-07-24T11:12:43Z,42.805,6.029,13.2986,4.60069,2470.133,2020-7-24T13:13:31Z
2020-07-24T11:15:46Z,42.805,6.029,13.2990,4.60070,2470.124,2020-7-24T13:16:34Z
2020-07-24T11:18:50Z,42.805,6.029,13.2988,4.60079,2470.11,2020-7-24T13:19:37Z
2020-07-24T11:21:53Z,42.805,6.029,13.2985,4.60053,2470.087,2020-7-24T13:22:40Z
2020-07-24T11:24:56Z,42.805,6.029,13.2990,4.60049,2470.11,2020-7-24T13:25:44Z
2020-07-24T11:27:59Z,42.805,6.029,13.3001,4.60073,2470.124,2020-7-24T13:28:47Z
2020-07-24T11:31:03Z,42.805,6.029,13.2998,4.60058,2470.124,2020-7-24T13:31:50Z
2020-07-24T11:34:06Z,42.805,6.029,13.2998,4.60077,2470.124,2020-7-24T13:34:53Z
2020-07-24T11:37:10Z,42.805,6.029,13.2996,4.60056,2470.11,2020-7-24T13:37:57Z
2020-07-24T11:40:13Z,42.805,6.029,13.2998,4.60041,2470.063,2020-7-24T13:41:00Z
2020-07-24T11:43:16Z,42.805,6.029,13.2989,4.60047,2470.11,2020-7-24T13:44:04Z
2020-07-24T11:46:19Z,42.805,6.029,13.2995,4.60027,2470.1,2020-7-24T13:47:07Z
2020-07-24T11:49:23Z,42.805,6.029,13.2986,4.60022,2470.11,2020-7-24T13:50:10Z
2020-07-24T11:52:26Z,42.805,6.029,13.2990,4.60029,2470.11,2020-7-24T13:53:13Z
2020-07-24T11:55:29Z,42.805,6.029,13.2983,4.60072,2470.087,2020-7-24T13:56:17Z
2020-07-24T11:58:32Z,42.805,6.029,13.2985,4.60066,2470.1,2020-7-24T13:59:20Z
2020-07-24T12:01:36Z,42.805,6.029,13.2983,4.60039,2470.087,2020-7-24T14:02:23Z
2020-07-24T12:04:39Z,42.805,6.029,13.2988,4.60031,2470.063,2020-7-24T14:05:26Z
2020-07-24T12:07:42Z,42.805,6.029,13.2988,4.60052,2470.087,2020-7-24T14:08:29Z
2020-07-24T12:10:45Z,42.805,6.029,13.2993,4.60009,2470.124,2020-7-24T14:11:33Z
2020-07-24T12:13:48Z,42.805,6.029,13.2984,4.60029,2470.077,2020-7-24T14:14:36Z
2020-07-24T12:16:52Z,42.805,6.029,13.2986,4.60019,2470.063,2020-7-24T14:17:39Z
2020-07-24T12:19:55Z,42.805,6.029,13.2991,4.60029,2470.077,2020-7-24T14:20:42Z
2020-07-24T12:22:58Z,42.805,6.029,13.2990,4.60033,2470.1,2020-7-24T14:23:46Z
2020-07-24T12:26:01Z,42.805,6.029,13.2998,4.60043,2470.087,2020-7-24T14:26:49Z
2020-07-24T12:29:05Z,42.805,6.029,13.2986,4.60049,2470.063,2020-7-24T14:29:52Z
2020-07-24T12:32:08Z,42.805,6.029,13.3011,4.60033,2470.04,2020-7-24T14:32:56Z
2020-07-24T12:35:11Z,42.805,6.029,13.2991,4.60011,2470.077,2020-7-24T14:35:59Z
2020-07-24T12:38:15Z,42.805,6.029,13.2988,4.60039,2470.04,2020-7-24T14:39:02Z
2020-07-24T12:41:18Z,42.805,6.029,13.3002,4.60063,2470.077,2020-7-24T14:42:05Z
2020-07-24T12:44:21Z,42.805,6.029,13.3000,4.60053,2470.1,2020-7-24T14:45:09Z
2020-07-24T12:47:24Z,42.805,6.029,13.2983,4.60068,2470.04,2020-7-24T14:48:12Z
2020-07-24T12:50:28Z,42.805,6.029,13.2998,4.60042,2470.063,2020-7-24T14:51:15Z
2020-07-24T12:53:31Z,42.805,6.029,13.2982,4.60048,2470.04,2020-7-24T14:54:18Z
2020-07-24T12:56:34Z,42.805,6.029,13.2983,4.60040,2470.063,2020-7-24T14:57:22Z
2020-07-24T12:59:37Z,42.805,6.029,13.2984,4.60035,2469.979,2020-7-24T15:00:25Z
2020-07-24T13:02:41Z,42.805,6.029,13.2998,4.60048,2470.053,2020-7-24T15:03:28Z
2020-07-24T13:05:44Z,42.805,6.029,13.3004,4.60052,2470.077,2020-7-24T15:06:31Z
2020-07-24T13:08:47Z,42.805,6.029,13.2986,4.60067,2470.053,2020-7-24T15:09:34Z
2020-07-24T13:11:50Z,42.805,6.029,13.2987,4.60022,2470.063,2020-7-24T15:12:38Z
2020-07-24T13:14:53Z,42.805,6.029,13.2985,4.60026,2470.04,2020-7-24T15:15:41Z
2020-07-24T13:17:57Z,42.805,6.029,13.2998,4.60025,2470.077,2020-7-24T15:18:44Z
2020-07-24T13:21:00Z,42.805,6.029,13.3005,4.60029,2470.053,2020-7-24T15:21:47Z
2020-07-24T13:24:03Z,42.805,6.029,13.2985,4.60045,2470.03,2020-7-24T15:24:51Z
2020-07-24T13:27:06Z,42.805,6.029,13.2985,4.60019,2470.077,2020-7-24T15:27:54Z
2020-07-24T13:30:10Z,42.805,6.029,13.2990,4.60013,2470.017,2020-7-24T15:30:57Z
2020-07-24T13:33:13Z,42.805,6.029,13.2986,4.60035,2470.017,2020-7-24T15:34:00Z
2020-07-24T13:36:16Z,42.805,6.029,13.2986,4.60011,2470.03,2020-7-24T15:37:04Z
2020-07-24T13:39:19Z,42.805,6.029,13.2989,4.60025,2470.03,2020-7-24T15:40:07Z
2020-07-24T13:42:23Z,42.805,6.029,13.2997,4.60029,2470.007,2020-7-24T15:43:10Z
2020-07-24T13:45:26Z,42.805,6.029,13.2998,4.60031,2470.04,2020-7-24T15:46:13Z
2020-07-24T13:48:29Z,42.805,6.029,13.2980,4.60026,2470.03,2020-7-24T15:49:17Z
2020-07-24T13:51:33Z,42.805,6.029,13.2981,4.60019,2470.017,2020-7-24T15:52:20Z
2020-07-24T13:54:36Z,42.805,6.029,13.2990,4.60054,2470.007,2020-7-24T15:55:24Z
2020-07-24T13:57:39Z,42.805,6.029,13.2996,4.60036,2470.017,2020-7-24T15:58:27Z
2020-07-24T14:00:42Z,42.805,6.029,13.2990,4.60021,2470.053,2020-7-24T16:01:30Z
2020-07-24T14:03:46Z,42.805,6.029,13.2984,4.60036,2470.017,2020-7-24T16:04:33Z
2020-07-24T14:06:49Z,42.805,6.029,13.2986,4.60043,2470.007,2020-7-24T16:07:37Z
2020-07-24T14:09:52Z,42.805,6.029,13.2983,4.60053,2470.03,2020-7-24T16:10:40Z
2020-07-24T14:12:56Z,42.805,6.029,13.2990,4.60049,2470.007,2020-7-24T16:13:43Z
2020-07-24T14:15:59Z,42.805,6.029,13.3003,4.60039,2470.03,2020-7-24T16:16:47Z
2020-07-24T14:19:02Z,42.805,6.029,13.2993,4.60051,2470.007,2020-7-24T16:19:50Z
2020-07-24T14:22:05Z,42.805,6.029,13.2982,4.60052,2469.97,2020-7-24T16:22:53Z
2020-07-24T14:25:09Z,42.805,6.029,13.2979,4.60015,2470.007,2020-7-24T16:25:56Z
2020-07-24T14:28:12Z,42.805,6.029,13.2980,4.60033,2470.03,2020-7-24T16:29:00Z
2020-07-24T14:31:15Z,42.805,6.029,13.3001,4.60038,2469.993,2020-7-24T16:32:03Z
2020-07-24T14:34:19Z,42.805,6.029,13.2998,4.60040,2470.007,2020-7-24T16:35:06Z
2020-07-24T14:37:22Z,42.805,6.029,13.2986,4.60023,2469.993,2020-7-24T16:38:09Z
2020-07-24T14:40:25Z,42.805,6.029,13.2992,4.60024,2469.984,2020-7-24T16:41:13Z
2020-07-24T14:43:28Z,42.805,6.029,13.3009,4.60052,2470.007,2020-7-24T16:44:16Z
2020-07-24T14:46:31Z,42.805,6.029,13.3011,4.60041,2469.984,2020-7-24T16:47:19Z
2020-07-24T14:49:35Z,42.805,6.029,13.3006,4.60047,2470.007,2020-7-24T16:50:22Z
2020-07-24T14:52:38Z,42.805,6.029,13.2998,4.60049,2469.993,2020-7-24T16:53:25Z
2020-07-24T14:55:41Z,42.805,6.029,13.2995,4.60019,2469.947,2020-7-24T16:56:29Z
2020-07-24T14:58:44Z,42.805,6.029,13.2985,4.60032,2469.97,2020-7-24T16:59:32Z
2020-07-24T15:01:48Z,42.805,6.029,13.2993,4.60039,2469.984,2020-7-24T17:02:35Z
2020-07-24T15:04:51Z,42.805,6.029,13.2986,4.60036,2469.97,2020-7-24T17:05:39Z
2020-07-24T15:07:54Z,42.805,6.029,13.2989,4.60041,2469.984,2020-7-24T17:08:42Z
2020-07-24T15:10:58Z,42.805,6.029,13.2991,4.60020,2469.97,2020-7-24T17:11:45Z
2020-07-24T15:14:01Z,42.805,6.029,13.2983,4.60025,2469.984,2020-7-24T17:14:48Z